| time (UTC) | temp C | wind direction | speed KPH | gust KPH | rain 1hr cm | rain 24hr cm | rain mn cm | humidity % | barometer mb |
| 20260901063027 | 9 | 360 | 0.0 | 0.0 | 0.00 | 0.00 | 0.00 | 78 | 1012.9 |
| 20260901062519 | 9 | 360 | 1.6 | 0.0 | 0.00 | 0.00 | 0.00 | 78 | 1012.8 |
| 20260901062013 | 10 | 360 | 1.6 | 0.0 | 0.00 | 0.00 | 0.00 | 77 | 1012.9 |
| 20260901061512 | 10 | 360 | 1.6 | 0.0 | 0.00 | 0.00 | 0.00 | 77 | 1012.9 |
| 20260901061010 | 10 | 360 | 3.2 | 0.0 | 0.00 | 0.00 | 0.00 | 77 | 1012.9 |
| 20260901060512 | 10 | 360 | 3.2 | 0.0 | 0.00 | 0.00 | 0.00 | 76 | 1012.8 |
| 20260901060010 | 10 | 360 | 0.0 | 0.0 | 0.00 | 0.00 | 0.00 | 76 | 1012.7 |
| 20260901055508 | 10 | 360 | 0.0 | 0.0 | 0.00 | 0.00 | 0.00 | 77 | 1012.5 |
| 20260901055009 | 10 | 360 | 0.0 | 0.0 | 0.00 | 0.00 | 0.00 | 76 | 1012.6 |
| 20260901054520 | 10 | 360 | 0.0 | 0.0 | 0.00 | 0.00 | 0.00 | 76 | 1012.5 |
| 20260901054008 | 10 | 360 | 0.0 | 0.0 | 0.00 | 0.00 | 0.00 | 76 | 1012.3 |
| 20260901053010 | 10 | 360 | 0.0 | 0.0 | 0.00 | 0.00 | 0.00 | 74 | 1012.1 |
| 20260901052508 | 11 | 360 | 0.0 | 0.0 | 0.00 | 0.00 | 0.00 | 75 | 1012.1 |
| 20260901052008 | 11 | 360 | 0.0 | 0.0 | 0.00 | 0.00 | 0.00 | 76 | 1012.3 |
| 20260901051508 | 11 | 360 | 0.0 | 0.0 | 0.00 | 0.00 | 0.00 | 76 | 1012.2 |
| 20260901051011 | 11 | 360 | 0.0 | 0.0 | 0.00 | 0.00 | 0.00 | 77 | 1012.1 |
| 20260901050509 | 10 | 360 | 0.0 | 0.0 | 0.00 | 0.00 | 0.00 | 77 | 1012.1 |
| 20260901050007 | 10 | 360 | 0.0 | 0.0 | 0.00 | 0.00 | 0.00 | 76 | 1012.0 |
| 20260901045507 | 10 | 360 | 0.0 | 0.0 | 0.00 | 0.00 | 0.00 | 75 | 1012.0 |
| 20260901045009 | 10 | 360 | 0.0 | 0.0 | 0.00 | 0.00 | 0.00 | 75 | 1012.4 |
| 20260901044507 | 10 | 360 | 0.0 | 0.0 | 0.00 | 0.00 | 0.00 | 74 | 1012.4 |
| 20260901044007 | 10 | 360 | 1.6 | 0.0 | 0.00 | 0.00 | 0.00 | 72 | 1012.4 |
| 20260901043010 | 11 | 360 | 1.6 | 0.0 | 0.00 | 0.00 | 0.00 | 70 | 1012.4 |
| 20260901042508 | 12 | 360 | 1.6 | 0.0 | 0.00 | 0.00 | 0.00 | 69 | 1012.5 |
| 20260901042007 | 12 | 360 | 1.6 | 0.0 | 0.00 | 0.00 | 0.00 | 68 | 1012.4 |
| 20260901041507 | 12 | 360 | 0.0 | 0.0 | 0.00 | 0.00 | 0.00 | 66 | 1012.4 |
| 20260901041007 | 13 | 360 | 1.6 | 0.0 | 0.00 | 0.00 | 0.00 | 65 | 1012.5 |
| 20260901040507 | 13 | 360 | 1.6 | 0.0 | 0.00 | 0.00 | 0.00 | 63 | 1012.5 |
| 20260901040007 | 14 | 360 | 1.6 | 0.0 | 0.00 | 0.00 | 0.00 | 62 | 1012.5 |
| 20260901035509 | 15 | 360 | 1.6 | 0.0 | 0.00 | 0.00 | 0.00 | 62 | 1012.5 |
| 20260901035007 | 15 | 360 | 3.2 | 0.0 | 0.00 | 0.00 | 0.00 | 61 | 1012.4 |
| 20260901034512 | 15 | 360 | 3.2 | 0.0 | 0.00 | 0.00 | 0.00 | 62 | 1012.4 |
| 20260901034005 | 15 | 360 | 3.2 | 0.0 | 0.00 | 0.00 | 0.00 | 62 | 1012.4 |
| 20260901033007 | 15 | 360 | 3.2 | 0.0 | 0.00 | 0.00 | 0.00 | 61 | 1012.2 |
| 20260901032504 | 15 | 360 | 4.8 | 0.0 | 0.00 | 0.00 | 0.00 | 60 | 1012.1 |
| 20260901032004 | 15 | 360 | 4.8 | 0.0 | 0.00 | 0.00 | 0.00 | 58 | 1012.1 |
| 20260901031508 | 16 | 360 | 4.8 | 0.0 | 0.00 | 0.00 | 0.00 | 57 | 1012.0 |
| 20260901031003 | 16 | 360 | 4.8 | 0.0 | 0.00 | 0.00 | 0.00 | 56 | 1012.1 |
| 20260901030502 | 17 | 360 | 4.8 | 0.0 | 0.00 | 0.00 | 0.00 | 54 | 1012.0 |
| 20260901030003 | 17 | 360 | 4.8 | 0.0 | 0.00 | 0.00 | 0.00 | 55 | 1011.9 |
| 20260901025502 | 17 | 360 | 3.2 | 0.0 | 0.00 | 0.00 | 0.00 | 54 | 1011.9 |
| 20260901025003 | 17 | 360 | 1.6 | 0.0 | 0.00 | 0.00 | 0.00 | 53 | 1011.9 |
| 20260901024502 | 17 | 360 | 1.6 | 0.0 | 0.00 | 0.00 | 0.00 | 54 | 1011.8 |
| 20260901024004 | 17 | 360 | 0.0 | 0.0 | 0.00 | 0.00 | 0.00 | 54 | 1011.6 |
| 20260901023005 | 18 | 360 | 1.6 | 0.0 | 0.00 | 0.00 | 0.00 | 52 | 1011.4 |
| 20260901022602 | 18 | 360 | 0.0 | 0.0 | 0.00 | 0.00 | 0.00 | 51 | 1011.3 |
| 20260901022100 | 18 | 360 | 1.6 | 0.0 | 0.00 | 0.00 | 0.00 | 50 | 1011.3 |
| 20260901021601 | 19 | 360 | 3.2 | 0.0 | 0.00 | 0.00 | 0.00 | 50 | 1011.1 |
| 20260901021057 | 19 | 360 | 3.2 | 0.0 | 0.00 | 0.00 | 0.00 | 49 | 1011.0 |
| 20260901020600 | 20 | 360 | 4.8 | 0.0 | 0.00 | 0.00 | 0.00 | 48 | 1010.9 |
| 20260901020057 | 20 | 360 | 4.8 | 0.0 | 0.00 | 0.00 | 0.00 | 48 | 1010.9 |
| 20260901015558 | 20 | 360 | 4.8 | 0.0 | 0.00 | 0.00 | 0.00 | 46 | 1010.7 |
| 20260901015056 | 21 | 360 | 4.8 | 0.0 | 0.00 | 0.00 | 0.00 | 45 | 1010.7 |
| 20260901014556 | 21 | 360 | 6.4 | 0.0 | 0.00 | 0.00 | 0.00 | 45 | 1010.6 |
| 20260901014055 | 21 | 360 | 8.0 | 0.0 | 0.00 | 0.00 | 0.00 | 44 | 1010.4 |
| 20260901013109 | 22 | 360 | 11.3 | 0.0 | 0.00 | 0.00 | 0.00 | 42 | 1010.4 |
| 20260901012552 | 22 | 360 | 12.9 | 0.0 | 0.00 | 0.00 | 0.00 | 41 | 1010.2 |
| 20260901012052 | 23 | 296 | 12.9 | 0.0 | 0.00 | 0.00 | 0.00 | 41 | 1010.2 |
| 20260901011556 | 23 | 360 | 11.3 | 0.0 | 0.00 | 0.00 | 0.00 | 40 | 1010.0 |
| 20260901011051 | 23 | 360 | 12.9 | 0.0 | 0.00 | 0.00 | 0.00 | 39 | 1010.0 |
| 20260901010551 | 23 | 286 | 17.7 | 0.0 | 0.00 | 0.00 | 0.00 | 39 | 1010.0 |
| 20260901010052 | 24 | 288 | 22.5 | 0.0 | 0.00 | 0.00 | 0.00 | 38 | 1009.9 |
| 20260901005554 | 24 | 293 | 22.5 | 0.0 | 0.00 | 0.00 | 0.00 | 38 | 1009.9 |
| 20260901005050 | 24 | 305 | 20.9 | 0.0 | 0.00 | 0.00 | 0.00 | 38 | 1009.8 |
| 20260901004554 | 24 | 285 | 20.9 | 0.0 | 0.00 | 0.00 | 0.00 | 38 | 1009.9 |
| 20260901004050 | 24 | 309 | 22.5 | 0.0 | 0.00 | 0.00 | 0.00 | 37 | 1009.9 |
| 20260901003051 | 25 | 295 | 22.5 | 0.0 | 0.00 | 0.00 | 0.00 | 36 | 1009.9 |
| 20260901002551 | 25 | 287 | 25.7 | 0.0 | 0.00 | 0.00 | 0.00 | 36 | 1009.8 |
| 20260901002051 | 25 | 282 | 25.7 | 0.0 | 0.00 | 0.00 | 0.00 | 36 | 1009.9 |
| 20260901001551 | 25 | 287 | 25.7 | 0.0 | 0.00 | 0.00 | 0.00 | 37 | 1009.9 |
| 20260901001050 | 25 | 291 | 25.7 | 0.0 | 0.00 | 0.00 | 0.00 | 36 | 1009.8 |
| 20260901000550 | 25 | 291 | 25.7 | 0.0 | 0.00 | 0.00 | 0.00 | 35 | 1009.7 |
| 20260901000049 | 25 | 275 | 25.7 | 0.0 | 0.00 | 0.00 | 0.00 | 35 | 1009.7 |
| 20260831235549 | 25 | 290 | 24.1 | 0.0 | 0.00 | 0.00 | 0.00 | 35 | 1009.7 |
| 20260831235049 | 26 | 290 | 24.1 | 0.0 | 0.00 | 0.00 | 0.00 | 35 | 1009.7 |
| 20260831234555 | 26 | 360 | 24.1 | 0.0 | 0.00 | 0.00 | 0.00 | 35 | 1009.6 |
| 20260831234051 | 26 | 292 | 25.7 | 0.0 | 0.00 | 0.00 | 0.00 | 35 | 1009.6 |
| 20260831233049 | 26 | 360 | 25.7 | 0.0 | 0.00 | 0.00 | 0.00 | 35 | 1009.7 |
| 20260831232548 | 26 | 316 | 24.1 | 0.0 | 0.00 | 0.00 | 0.00 | 35 | 1009.6 |
| 20260831232048 | 26 | 269 | 29.0 | 0.0 | 0.00 | 0.00 | 0.00 | 35 | 1009.7 |
| 20260831231549 | 26 | 317 | 29.0 | 0.0 | 0.00 | 0.00 | 0.00 | 35 | 1009.6 |
| 20260831231050 | 26 | 275 | 30.6 | 0.0 | 0.00 | 0.00 | 0.00 | 34 | 1009.6 |
| 20260831230548 | 26 | 275 | 30.6 | 0.0 | 0.00 | 0.00 | 0.00 | 34 | 1009.7 |
| 20260831230048 | 26 | 287 | 27.4 | 0.0 | 0.00 | 0.00 | 0.00 | 33 | 1009.6 |
| 20260831225547 | 26 | 275 | 25.7 | 0.0 | 0.00 | 0.00 | 0.00 | 34 | 1009.5 |
| 20260831225047 | 26 | 277 | 29.0 | 0.0 | 0.00 | 0.00 | 0.00 | 35 | 1009.6 |
| 20260831224546 | 26 | 273 | 29.0 | 0.0 | 0.00 | 0.00 | 0.00 | 34 | 1009.6 |
| 20260831224049 | 26 | 296 | 27.4 | 0.0 | 0.00 | 0.00 | 0.00 | 34 | 1009.5 |
| 20260831223049 | 26 | 294 | 30.6 | 0.0 | 0.00 | 0.00 | 0.00 | 34 | 1009.4 |
| 20260831222546 | 26 | 269 | 29.0 | 0.0 | 0.00 | 0.00 | 0.00 | 33 | 1009.4 |
| 20260831222044 | 26 | 277 | 30.6 | 0.0 | 0.00 | 0.00 | 0.00 | 33 | 1009.4 |
| 20260831221559 | 26 | 268 | 32.2 | 0.0 | 0.00 | 0.00 | 0.00 | 33 | 1009.4 |
| 20260831221044 | 26 | 284 | 33.8 | 0.0 | 0.00 | 0.00 | 0.00 | 34 | 1009.2 |
| 20260831220544 | 26 | 304 | 32.2 | 0.0 | 0.00 | 0.00 | 0.00 | 34 | 1009.3 |
| 20260831220044 | 26 | 311 | 32.2 | 0.0 | 0.00 | 0.00 | 0.00 | 33 | 1008.7 |
| 20260831215544 | 26 | 288 | 33.8 | 0.0 | 0.00 | 0.00 | 0.00 | 33 | 1009.3 |
| 20260831215044 | 26 | 269 | 29.0 | 0.0 | 0.00 | 0.00 | 0.00 | 33 | 1009.0 |
| 20260831214544 | 26 | 235 | 30.6 | 0.0 | 0.00 | 0.00 | 0.00 | 34 | 1009.2 |
| 20260831214043 | 27 | 279 | 32.2 | 0.0 | 0.00 | 0.00 | 0.00 | 33 | 1009.2 |
| 20260831213045 | 26 | 300 | 35.4 | 0.0 | 0.00 | 0.00 | 0.00 | 34 | 1009.1 |
| 20260831212543 | 26 | 280 | 33.8 | 0.0 | 0.00 | 0.00 | 0.00 | 34 | 1009.1 |
| 20260831212045 | 26 | 291 | 30.6 | 0.0 | 0.00 | 0.00 | 0.00 | 33 | 1009.2 |
| 20260831211543 | 26 | 292 | 30.6 | 0.0 | 0.00 | 0.00 | 0.00 | 35 | 1009.2 |
| 20260831211043 | 26 | 360 | 32.2 | 0.0 | 0.00 | 0.00 | 0.00 | 34 | 1009.2 |
| 20260831210541 | 26 | 265 | 32.2 | 0.0 | 0.00 | 0.00 | 0.00 | 35 | 1009.1 |
| 20260831210041 | 26 | 275 | 32.2 | 0.0 | 0.00 | 0.00 | 0.00 | 34 | 1009.2 |
| 20260831205544 | 26 | 273 | 35.4 | 0.0 | 0.00 | 0.00 | 0.00 | 35 | 1009.0 |
| 20260831205041 | 26 | 294 | 33.8 | 0.0 | 0.00 | 0.00 | 0.00 | 34 | 1009.0 |
| 20260831204541 | 26 | 306 | 30.6 | 0.0 | 0.00 | 0.00 | 0.00 | 35 | 1009.0 |
| 20260831204042 | 26 | 269 | 32.2 | 0.0 | 0.00 | 0.00 | 0.00 | 36 | 1009.1 |
| 20260831203055 | 26 | 262 | 32.2 | 0.0 | 0.00 | 0.00 | 0.00 | 35 | 1009.1 |
| 20260831202538 | 26 | 267 | 32.2 | 0.0 | 0.00 | 0.00 | 0.00 | 37 | 1009.0 |
| 20260831202040 | 26 | 285 | 32.2 | 0.0 | 0.00 | 0.00 | 0.00 | 35 | 1009.0 |
| 20260831201537 | 26 | 360 | 32.2 | 0.0 | 0.00 | 0.00 | 0.00 | 37 | 1009.0 |
| 20260831201038 | 26 | 269 | 33.8 | 0.0 | 0.00 | 0.00 | 0.00 | 36 | 1008.8 |
| 20260831200537 | 26 | 282 | 37.0 | 0.0 | 0.00 | 0.00 | 0.00 | 37 | 1009.0 |
| 20260831200112 | 26 | 273 | 35.4 | 0.0 | 0.00 | 0.00 | 0.00 | 37 | 1008.9 |
| 20260831195539 | 26 | 279 | 30.6 | 0.0 | 0.00 | 0.00 | 0.00 | 37 | 1008.8 |
| 20260831195035 | 26 | 277 | 30.6 | 0.0 | 0.00 | 0.00 | 0.00 | 39 | 1008.7 |
| 20260831194537 | 26 | 360 | 30.6 | 0.0 | 0.00 | 0.00 | 0.00 | 38 | 1008.9 |
| 20260831194035 | 26 | 270 | 29.0 | 0.0 | 0.00 | 0.00 | 0.00 | 37 | 1008.9 |
| 20260831193035 | 25 | 360 | 32.2 | 0.0 | 0.00 | 0.00 | 0.00 | 38 | 1008.7 |
| 20260831192538 | 25 | 360 | 32.2 | 0.0 | 0.00 | 0.00 | 0.00 | 39 | 1008.7 |
| 20260831192035 | 25 | 273 | 33.8 | 0.0 | 0.00 | 0.00 | 0.00 | 39 | 1008.7 |
| 20260831191534 | 25 | 360 | 35.4 | 0.0 | 0.00 | 0.00 | 0.00 | 38 | 1008.7 |
| 20260831191033 | 25 | 260 | 38.6 | 0.0 | 0.00 | 0.00 | 0.00 | 40 | 1008.7 |
| 20260831190535 | 25 | 279 | 37.0 | 0.0 | 0.00 | 0.00 | 0.00 | 39 | 1008.6 |
| 20260831190038 | 25 | 278 | 35.4 | 0.0 | 0.00 | 0.00 | 0.00 | 38 | 1008.6 |
| 20260831185532 | 25 | 282 | 41.8 | 0.0 | 0.00 | 0.00 | 0.00 | 39 | 1008.6 |
| 20260831185032 | 25 | 279 | 40.2 | 0.0 | 0.00 | 0.00 | 0.00 | 38 | 1008.7 |
| 20260831184531 | 25 | 269 | 37.0 | 0.0 | 0.00 | 0.00 | 0.00 | 37 | 1008.5 |
| 20260831184030 | 25 | 280 | 35.4 | 0.0 | 0.00 | 0.00 | 0.00 | 39 | 1008.4 |
| 20260831183029 | 25 | 360 | 35.4 | 0.0 | 0.00 | 0.00 | 0.00 | 40 | 1008.4 |
| 20260831182530 | 25 | 273 | 33.8 | 0.0 | 0.00 | 0.00 | 0.00 | 40 | 1008.4 |
| 20260831182029 | 25 | 265 | 37.0 | 0.0 | 0.00 | 0.00 | 0.00 | 40 | 1008.5 |
| 20260831181531 | 24 | 313 | 37.0 | 0.0 | 0.00 | 0.00 | 0.00 | 40 | 1008.3 |
| 20260831181027 | 24 | 282 | 32.2 | 0.0 | 0.00 | 0.00 | 0.00 | 41 | 1008.3 |
| 20260831180526 | 24 | 265 | 32.2 | 0.0 | 0.00 | 0.00 | 0.00 | 41 | 1008.2 |
| 20260831180029 | 24 | 276 | 32.2 | 0.0 | 0.00 | 0.00 | 0.00 | 42 | 1008.4 |
| 20260831175527 | 24 | 275 | 30.6 | 0.0 | 0.00 | 0.00 | 0.00 | 42 | 1008.5 |
| 20260831175025 | 24 | 267 | 33.8 | 0.0 | 0.00 | 0.00 | 0.00 | 43 | 1008.4 |
| 20260831174527 | 23 | 277 | 37.0 | 0.0 | 0.00 | 0.00 | 0.00 | 43 | 1008.4 |
| 20260831174026 | 23 | 281 | 33.8 | 0.0 | 0.00 | 0.00 | 0.00 | 43 | 1008.4 |
| 20260831173024 | 23 | 360 | 32.2 | 0.0 | 0.00 | 0.00 | 0.00 | 43 | 1008.3 |
| 20260831172524 | 23 | 279 | 35.4 | 0.0 | 0.00 | 0.00 | 0.00 | 44 | 1008.3 |
| 20260831172022 | 23 | 265 | 32.2 | 0.0 | 0.00 | 0.00 | 0.00 | 44 | 1008.4 |
| 20260831171522 | 23 | 270 | 30.6 | 0.0 | 0.00 | 0.00 | 0.00 | 45 | 1008.3 |
| 20260831171022 | 23 | 360 | 32.2 | 0.0 | 0.00 | 0.00 | 0.00 | 45 | 1008.3 |
| 20260831170521 | 23 | 360 | 33.8 | 0.0 | 0.00 | 0.00 | 0.00 | 46 | 1008.4 |
| 20260831170022 | 23 | 360 | 33.8 | 0.0 | 0.00 | 0.00 | 0.00 | 46 | 1008.3 |
| 20260831165519 | 22 | 360 | 30.6 | 0.0 | 0.00 | 0.00 | 0.00 | 46 | 1008.2 |
| 20260831165019 | 22 | 360 | 27.4 | 0.0 | 0.00 | 0.00 | 0.00 | 46 | 1008.0 |
| 20260831164519 | 22 | 360 | 29.0 | 0.0 | 0.00 | 0.00 | 0.00 | 46 | 1008.1 |
| 20260831164018 | 22 | 360 | 30.6 | 0.0 | 0.00 | 0.00 | 0.00 | 45 | 1008.1 |
| 20260831163019 | 22 | 360 | 27.4 | 0.0 | 0.00 | 0.00 | 0.00 | 45 | 1008.2 |
| 20260831162520 | 22 | 265 | 27.4 | 0.0 | 0.00 | 0.00 | 0.00 | 44 | 1008.1 |
| 20260831162015 | 21 | 360 | 30.6 | 0.0 | 0.00 | 0.00 | 0.00 | 45 | 1008.1 |
| 20260831161515 | 21 | 360 | 30.6 | 0.0 | 0.00 | 0.00 | 0.00 | 44 | 1008.2 |
| 20260831161014 | 21 | 267 | 30.6 | 0.0 | 0.00 | 0.00 | 0.00 | 45 | 1008.0 |
| 20260831160615 | 21 | 360 | 29.0 | 0.0 | 0.00 | 0.00 | 0.00 | 45 | 1008.1 |
| 20260831160013 | 21 | 360 | 29.0 | 0.0 | 0.00 | 0.00 | 0.00 | 45 | 1007.9 |
| 20260831155513 | 21 | 360 | 30.6 | 0.0 | 0.00 | 0.00 | 0.00 | 46 | 1007.9 |
| 20260831155013 | 20 | 360 | 29.0 | 0.0 | 0.00 | 0.00 | 0.00 | 46 | 1007.9 |
| 20260831154513 | 20 | 360 | 25.7 | 0.0 | 0.00 | 0.00 | 0.00 | 46 | 1007.9 |
| 20260831154012 | 20 | 360 | 24.1 | 0.0 | 0.00 | 0.00 | 0.00 | 47 | 1007.9 |
| 20260831153012 | 20 | 360 | 24.1 | 0.0 | 0.00 | 0.00 | 0.00 | 45 | 1007.9 |
| 20260831152514 | 20 | 360 | 24.1 | 0.0 | 0.00 | 0.00 | 0.00 | 46 | 1008.0 |
| 20260831152010 | 20 | 360 | 24.1 | 0.0 | 0.00 | 0.00 | 0.00 | 47 | 1008.0 |
| 20260831151510 | 20 | 360 | 24.1 | 0.0 | 0.00 | 0.00 | 0.00 | 47 | 1007.9 |
| 20260831151007 | 19 | 360 | 25.7 | 0.0 | 0.00 | 0.00 | 0.00 | 47 | 1007.9 |
| 20260831150507 | 19 | 360 | 24.1 | 0.0 | 0.00 | 0.00 | 0.00 | 48 | 1007.9 |
| 20260831150006 | 19 | 360 | 24.1 | 0.0 | 0.00 | 0.00 | 0.00 | 48 | 1007.8 |
| 20260831145507 | 19 | 360 | 24.1 | 0.0 | 0.00 | 0.00 | 0.00 | 49 | 1007.8 |
| 20260831145009 | 18 | 360 | 24.1 | 0.0 | 0.00 | 0.00 | 0.00 | 48 | 1007.8 |
| 20260831144506 | 18 | 360 | 24.1 | 0.0 | 0.00 | 0.00 | 0.00 | 49 | 1007.8 |
| 20260831144004 | 18 | 360 | 22.5 | 0.0 | 0.00 | 0.00 | 0.00 | 49 | 1007.7 |
| 20260831143006 | 18 | 360 | 22.5 | 0.0 | 0.00 | 0.00 | 0.00 | 49 | 1007.7 |
| 20260831142504 | 18 | 360 | 20.9 | 0.0 | 0.00 | 0.00 | 0.00 | 50 | 1007.7 |
| 20260831142004 | 17 | 360 | 20.9 | 0.0 | 0.00 | 0.00 | 0.00 | 50 | 1007.8 |
| 20260831141500 | 17 | 360 | 20.9 | 0.0 | 0.00 | 0.00 | 0.00 | 50 | 1007.8 |
| 20260831141100 | 17 | 360 | 20.9 | 0.0 | 0.00 | 0.00 | 0.00 | 50 | 1007.8 |
| 20260831141000 | 17 | 360 | 20.9 | 0.0 | 0.00 | 0.00 | 0.00 | 50 | 1007.8 |
| 20260831140602 | 17 | 360 | 20.9 | 0.0 | 0.00 | 0.00 | 0.00 | 51 | 1007.8 |
| 20260831140100 | 17 | 360 | 19.3 | 0.0 | 0.00 | 0.00 | 0.00 | 51 | 1007.8 |
| 20260831135559 | 17 | 360 | 17.7 | 0.0 | 0.00 | 0.00 | 0.00 | 52 | 1007.8 |
| 20260831135057 | 17 | 360 | 16.1 | 0.0 | 0.00 | 0.00 | 0.00 | 53 | 1007.8 |
| 20260831134557 | 16 | 360 | 16.1 | 0.0 | 0.00 | 0.00 | 0.00 | 53 | 1007.8 |
| 20260831134055 | 16 | 360 | 16.1 | 0.0 | 0.00 | 0.00 | 0.00 | 55 | 1007.8 |
| 20260831133654 | 15 | 360 | 16.1 | 0.0 | 0.00 | 0.00 | 0.00 | 56 | 1007.8 |
| 20260831133053 | 15 | 360 | 14.5 | 0.0 | 0.00 | 0.00 | 0.00 | 56 | 1007.8 |
| 20260831132556 | 15 | 360 | 14.5 | 0.0 | 0.00 | 0.00 | 0.00 | 57 | 1007.9 |
| 20260831132053 | 15 | 360 | 14.5 | 0.0 | 0.00 | 0.00 | 0.00 | 57 | 1007.9 |
| 20260831131555 | 15 | 360 | 14.5 | 0.0 | 0.00 | 0.00 | 0.00 | 57 | 1007.9 |
| 20260831131051 | 15 | 360 | 12.9 | 0.0 | 0.00 | 0.00 | 0.00 | 58 | 1007.9 |
| 20260831130550 | 15 | 360 | 14.5 | 0.0 | 0.00 | 0.00 | 0.00 | 58 | 1008.0 |
| 20260831130052 | 15 | 360 | 14.5 | 0.0 | 0.00 | 0.00 | 0.00 | 58 | 1007.9 |
| 20260831125549 | 15 | 360 | 14.5 | 0.0 | 0.00 | 0.00 | 0.00 | 58 | 1007.9 |
| 20260831125049 | 15 | 360 | 16.1 | 0.0 | 0.00 | 0.00 | 0.00 | 59 | 1007.9 |
| 20260831124548 | 15 | 360 | 14.5 | 0.0 | 0.00 | 0.00 | 0.00 | 59 | 1007.9 |
| 20260831124048 | 14 | 360 | 14.5 | 0.0 | 0.00 | 0.00 | 0.00 | 59 | 1007.8 |
| 20260831123646 | 14 | 360 | 16.1 | 0.0 | 0.00 | 0.00 | 0.00 | 59 | 1007.7 |
| 20260831123046 | 14 | 360 | 16.1 | 0.0 | 0.00 | 0.00 | 0.00 | 59 | 1007.6 |
| 20260831122545 | 14 | 360 | 16.1 | 0.0 | 0.00 | 0.00 | 0.00 | 59 | 1007.6 |
| 20260831122048 | 14 | 360 | 14.5 | 0.0 | 0.00 | 0.00 | 0.00 | 59 | 1007.5 |
| 20260831121547 | 14 | 360 | 14.5 | 0.0 | 0.00 | 0.00 | 0.00 | 60 | 1007.5 |
| 20260831121044 | 13 | 360 | 12.9 | 0.0 | 0.00 | 0.00 | 0.00 | 60 | 1007.4 |
| 20260831120545 | 13 | 360 | 11.3 | 0.0 | 0.00 | 0.00 | 0.00 | 60 | 1007.4 |
| 20260831120055 | 14 | 360 | 12.9 | 0.0 | 0.00 | 0.00 | 0.00 | 59 | 1007.4 |
| 20260831115545 | 14 | 360 | 14.5 | 0.0 | 0.00 | 0.00 | 0.00 | 59 | 1007.6 |
| 20260831115044 | 14 | 360 | 14.5 | 0.0 | 0.00 | 0.00 | 0.00 | 59 | 1007.5 |
| 20260831114546 | 14 | 360 | 12.9 | 0.0 | 0.00 | 0.00 | 0.00 | 60 | 1007.5 |
| 20260831114043 | 13 | 360 | 12.9 | 0.0 | 0.00 | 0.00 | 0.00 | 60 | 1007.3 |
| 20260831113645 | 13 | 360 | 11.3 | 0.0 | 0.00 | 0.00 | 0.00 | 61 | 1007.3 |
| 20260831113050 | 13 | 360 | 12.9 | 0.0 | 0.00 | 0.00 | 0.00 | 60 | 1007.2 |
| 20260831112543 | 14 | 360 | 14.5 | 0.0 | 0.00 | 0.00 | 0.00 | 61 | 1007.3 |
| 20260831112043 | 14 | 360 | 16.1 | 0.0 | 0.00 | 0.00 | 0.00 | 61 | 1007.2 |
| 20260831111542 | 14 | 360 | 16.1 | 0.0 | 0.00 | 0.00 | 0.00 | 62 | 1007.2 |
| 20260831111041 | 13 | 360 | 14.5 | 0.0 | 0.00 | 0.00 | 0.00 | 64 | 1007.2 |
| 20260831110540 | 13 | 360 | 11.3 | 0.0 | 0.00 | 0.00 | 0.00 | 68 | 1007.3 |
| 20260831110037 | 12 | 360 | 9.7 | 0.0 | 0.00 | 0.00 | 0.00 | 71 | 1007.3 |
| 20260831105537 | 12 | 360 | 11.3 | 0.0 | 0.00 | 0.00 | 0.00 | 73 | 1007.2 |
| 20260831105036 | 12 | 360 | 9.7 | 0.0 | 0.00 | 0.00 | 0.00 | 74 | 1007.2 |
| 20260831104539 | 12 | 360 | 9.7 | 0.0 | 0.00 | 0.00 | 0.00 | 75 | 1007.3 |
| 20260831104035 | 12 | 360 | 11.3 | 0.0 | 0.00 | 0.00 | 0.00 | 76 | 1007.3 |
| 20260831103634 | 11 | 360 | 9.7 | 0.0 | 0.00 | 0.00 | 0.00 | 78 | 1007.3 |
| 20260831103033 | 11 | 360 | 9.7 | 0.0 | 0.00 | 0.00 | 0.00 | 78 | 1007.3 |
| 20260831102533 | 11 | 360 | 6.4 | 0.0 | 0.00 | 0.00 | 0.00 | 78 | 1007.4 |
| 20260831102032 | 11 | 360 | 4.8 | 0.0 | 0.00 | 0.00 | 0.00 | 79 | 1007.2 |
| 20260831101532 | 11 | 360 | 6.4 | 0.0 | 0.00 | 0.00 | 0.00 | 79 | 1007.3 |
| 20260831101031 | 11 | 360 | 6.4 | 0.0 | 0.00 | 0.00 | 0.00 | 80 | 1007.5 |
| 20260831100530 | 11 | 360 | 6.4 | 0.0 | 0.00 | 0.00 | 0.00 | 81 | 1007.5 |
| 20260831100035 | 11 | 360 | 4.8 | 0.0 | 0.00 | 0.00 | 0.00 | 81 | 1007.5 |
| 20260831095529 | 11 | 360 | 4.8 | 0.0 | 0.00 | 0.00 | 0.00 | 80 | 1007.6 |
| 20260831095029 | 11 | 360 | 6.4 | 0.0 | 0.00 | 0.00 | 0.00 | 80 | 1007.6 |
| 20260831094529 | 11 | 360 | 6.4 | 0.0 | 0.00 | 0.00 | 0.00 | 81 | 1007.6 |
| 20260831094130 | 10 | 360 | 4.8 | 0.0 | 0.00 | 0.00 | 0.00 | 82 | 1007.7 |
| 20260831093630 | 10 | 360 | 3.2 | 0.0 | 0.00 | 0.00 | 0.00 | 82 | 1007.8 |
| 20260831093031 | 10 | 360 | 1.6 | 0.0 | 0.00 | 0.00 | 0.00 | 82 | 1007.8 |
| 20260831092534 | 10 | 360 | 1.6 | 0.0 | 0.00 | 0.00 | 0.00 | 81 | 1007.9 |
| 20260831092028 | 10 | 360 | 1.6 | 0.0 | 0.00 | 0.00 | 0.00 | 81 | 1007.9 |
| 20260831091533 | 10 | 360 | 0.0 | 0.0 | 0.00 | 0.00 | 0.00 | 81 | 1007.9 |
| 20260831091027 | 10 | 360 | 0.0 | 0.0 | 0.00 | 0.00 | 0.00 | 80 | 1007.7 |
| 20260831090529 | 10 | 360 | 0.0 | 0.0 | 0.00 | 0.00 | 0.00 | 80 | 1007.8 |
| 20260831090027 | 11 | 360 | 1.6 | 0.0 | 0.00 | 0.00 | 0.00 | 80 | 1007.8 |
| 20260831085526 | 11 | 360 | 3.2 | 0.0 | 0.00 | 0.00 | 0.00 | 81 | 1007.8 |
| 20260831085025 | 11 | 360 | 1.6 | 0.0 | 0.00 | 0.00 | 0.00 | 81 | 1007.8 |
| 20260831084528 | 11 | 360 | 0.0 | 0.0 | 0.00 | 0.00 | 0.00 | 81 | 1007.7 |
| 20260831084025 | 10 | 360 | 1.6 | 0.0 | 0.00 | 0.00 | 0.00 | 81 | 1007.7 |
| 20260831083625 | 10 | 360 | 3.2 | 0.0 | 0.00 | 0.00 | 0.00 | 81 | 1007.7 |
| 20260831083027 | 10 | 360 | 3.2 | 0.0 | 0.00 | 0.00 | 0.00 | 80 | 1007.7 |
| 20260831082524 | 11 | 360 | 1.6 | 0.0 | 0.00 | 0.00 | 0.00 | 81 | 1007.6 |
| 20260831082024 | 11 | 360 | 1.6 | 0.0 | 0.00 | 0.00 | 0.00 | 82 | 1007.7 |
| 20260831081525 | 11 | 360 | 1.6 | 0.0 | 0.00 | 0.00 | 0.00 | 82 | 1007.7 |
| 20260831081024 | 11 | 360 | 1.6 | 0.0 | 0.00 | 0.00 | 0.00 | 81 | 1007.7 |
| 20260831080522 | 11 | 360 | 0.0 | 0.0 | 0.00 | 0.00 | 0.00 | 81 | 1007.7 |
| 20260831080024 | 11 | 360 | 0.0 | 0.0 | 0.00 | 0.00 | 0.00 | 82 | 1007.8 |
| 20260831075521 | 11 | 360 | 0.0 | 0.0 | 0.00 | 0.00 | 0.00 | 82 | 1007.6 |
| 20260831075020 | 11 | 360 | 0.0 | 0.0 | 0.00 | 0.00 | 0.00 | 81 | 1007.6 |
| 20260831074524 | 11 | 360 | 1.6 | 0.0 | 0.00 | 0.00 | 0.00 | 81 | 1007.6 |
| 20260831074019 | 11 | 360 | 3.2 | 0.0 | 0.00 | 0.00 | 0.00 | 81 | 1007.4 |
| 20260831073617 | 11 | 360 | 3.2 | 0.0 | 0.00 | 0.00 | 0.00 | 81 | 1007.5 |
| 20260831073016 | 11 | 360 | 4.8 | 0.0 | 0.00 | 0.00 | 0.13 | 81 | 1007.4 |
| 20260831072516 | 11 | 360 | 4.8 | 0.0 | 0.00 | 0.00 | 0.13 | 82 | 1007.5 |
| 20260831072015 | 11 | 360 | 4.8 | 0.0 | 0.00 | 0.00 | 0.13 | 83 | 1007.4 |
| 20260831071515 | 11 | 360 | 6.4 | 0.0 | 0.00 | 0.00 | 0.13 | 83 | 1007.4 |
| 20260831071015 | 11 | 360 | 6.4 | 0.0 | 0.00 | 0.00 | 0.13 | 83 | 1007.5 |
| 20260831070514 | 11 | 360 | 4.8 | 0.0 | 0.00 | 0.00 | 0.13 | 81 | 1007.5 |
| 20260831070014 | 11 | 360 | 3.2 | 0.0 | 0.00 | 0.00 | 0.13 | 81 | 1007.3 |
| 20260831065514 | 12 | 360 | 1.6 | 0.0 | 0.00 | 0.00 | 0.13 | 81 | 1007.3 |
| 20260831065014 | 12 | 360 | 1.6 | 0.0 | 0.00 | 0.00 | 0.13 | 82 | 1007.4 |
| 20260831064513 | 12 | 360 | 3.2 | 0.0 | 0.00 | 0.00 | 0.13 | 82 | 1007.3 |
| 20260831064012 | 12 | 360 | 4.8 | 0.0 | 0.00 | 0.00 | 0.13 | 83 | 1007.3 |